Regional Weather Roundup
Issued by NWS

Home | Current Version | Previous Version | Text Only | Print | Product List | Glossary Off
Versions: 1 2 3 4 5 6 7 8 9 10 11 12 13 14 15 16 17 18 19 20 21 22 23 24 25 26 27 28 29 30 31 32 33 34 35 36 37 38 39 40 41 42 43 44 45 46 47 48 49 50

926
ASUS43 KLOT 281609
RWRIL

ILLINOIS REGIONAL WEATHER ROUNDUP
NATIONAL WEATHER SERVICE CHICAGO/ROMEOVILLE IL
1100 AM CDT THU JUL 28 2016

NOTE: "FAIR" INDICATES FEW OR NO CLOUDS BELOW 12,000 FEET WITH NO
SIGNIFICANT WEATHER AND/OR OBSTRUCTIONS TO VISIBILITY.

* THESE STATIONS ARE NOT UNDER NWS QUALITY CONTROL. THEY ALSO MAY NOT
  REPORT WEATHER SUCH AS PRECIPITATION OR FOG.

ILZ001-002-007-009-015-016-024-281700-
NORTHWEST ILLINOIS

CITY           SKY/WX    TMP DP  RH WIND       PRES   REMARKS
MOLINE         MOSUNNY   84  69  60 W6        29.90R HX  88
STERLING*      PTSUNNY   82  73  74 CALM      29.90S HX  87
SAVANNA*       SUNNY     82  71  69 CALM      29.89F HX  85
$$

ILZ003-004-008-010-011-017-018-281700-
NORTH CENTRAL ILLINOIS

CITY           SKY/WX    TMP DP  RH WIND       PRES   REMARKS
ROCKFORD       MOSUNNY   82  71  69 VRB3      29.91S HX  86
FREEPORT*      MOSUNNY   80  70  73 CALM      29.93R HX  83
ROCHELLE*      PTSUNNY   79  73  80 CALM      29.91S HX  83
DE KALB*       MOSUNNY   80  72  76 SE6       29.92S HX  85
$$

ILZ005-006-012>014-019>023-281700-
NORTHEAST ILLINOIS

CITY           SKY/WX    TMP DP  RH WIND       PRES   REMARKS
CHICAGO-OHARE  PTSUNNY   83  70  64 NE8       29.89F HX  87
CHICAGO-MIDWAY PTSUNNY   83  67  58 VRB7      29.89F HX  85
AURORA         MOSUNNY   83  71  67 S8        29.91S HX  87
LANSING*       PTSUNNY   82  67  60 S3        29.91S HX  84
JOLIET*        SUNNY     84  72  67 S7        29.90S HX  89
WAUKEGAN       CLOUDY    78  69  73 NE6       29.91S HX  80
DUPAGE AIRPORT MOSUNNY   82  69  64 S8        29.90S HX  85
KANKAKEE*      PTSUNNY   82  71  70 SE5       29.92S HX  86
WHEELING       PTSUNNY   79  70  74 NE8       29.92S HX  82
MORRIS*        PTSUNNY   81  71  73 S6        29.90R HX  84
ROMEOVILLE*    PTSUNNY   82  68  61 S5        29.90S HX  85
NORTHERLY ISL    N/A     78  71  79 NE5         N/A  HX  80
$$

LMZ740>746-281700-
SOUTHERN LAKE MICHIGAN

STATION/POSITION SKY/WX   TEMP    WIND        PRES    VSBY  WAVE
                          AIR SEA DIR/SP/G                  HT/PER
                          (F)     (DEG/KT/KT) (MB)    (MI)  (FT/S)
SOUTHERN BUOY              75 75  100/  4/  6 1012.1F         1
WILMETTE HARBOR            74 72   80/  2/  4   N/A           1/ 3
HARRISON CRIB              78     110/  5/  5   N/A
BURNHAM HARBOR             79      50/  5       N/A
CALUMET HARBOR             77      90/  5/  6 1012.2F
BURNS HARBOR               78      60/  4/  5 1013.2F
MICHIGAN CITY              77     360/  4/  4   N/A
MICHIGAN CITY 6N           78 78   10/  2/  2   N/A           1/ 3
ST. JOSEPH                 76 78  340/  4/  4 1012.3F         0
$$

ILZ025>027-034>036-040-047-049-050-058-095>099-281700-
WEST-CENTRAL ILLINOIS

CITY           SKY/WX    TMP DP  RH WIND       PRES   REMARKS
QUINCY         MOSUNNY   81  71  71 NW12      29.92S HX  85
GALESBURG*     MOSUNNY   81  70  68 NW6       29.91S HX  85
MACOMB*        SUNNY     81  72  74 NW7       29.94S HX  84
JACKSONVILLE*  PTSUNNY   81  74  79 NW7       29.91S HX  85
PITTSFIELD*    SUNNY     82  73  74 N3        29.93S HX  87
$$

ILZ028>032-037-038-041>044-048-051>054-059>061-281700-
CENTRAL ILLINOIS

CITY           SKY/WX    TMP DP  RH WIND       PRES   REMARKS
PONTIAC        SUNNY     81  74  78 SE6       29.92S HX  87
BLOOMINGTON    MOSUNNY   80  72  76 SE7       29.93R HX  84
DECATUR        MOSUNNY   80  72  76 SE7       29.91S HX  84
PEORIA         MOSUNNY   83  73  72 E5        29.89F HX  89
LACON*         CLOUDY    81  73  77 CALM      29.90S HX  85
LINCOLN*       MOSUNNY   83  77  82 N3        29.90F HX  91
SPRINGFIELD    MOSUNNY   84  74  71 CALM      29.91S HX  91
TAYLORVILLE    PTSUNNY   81  75  82 MISG      29.90F HX  86
$$

ILZ033-039-045-046-055>057-062-063-281700-
EAST-CENTRAL ILLINOIS

CITY           SKY/WX    TMP DP  RH WIND       PRES   REMARKS
CHAMPAIGN      PTSUNNY   76  68  76 S3        29.92S
MATTOON        LGT RAIN  73  68  84 SE6       29.89F
PARIS*         LGT RAIN  74  73  95 CALM      29.91S
$$

ILZ079-100>102-281700-
SOUTHWEST ILLINOIS

CITY           SKY/WX    TMP DP  RH WIND       PRES   REMARKS
ALTON          PTSUNNY   82  73  74 NW6       29.91S HX  88
BELLEVILLE     SUNNY     87  78  74 NE7       29.89  HX 100
CAHOKIA*       MOSUNNY   89  73  59 CALM      29.89S HX  97
SPARTA*        MOSUNNY   83  75  77 CALM      29.92S HX  89
$$

ILZ064>066-069>071-074>076-080>082-084>086-088>090-092>094-281700-
SOUTH-CENTRAL ILLINOIS

CITY           SKY/WX    TMP DP  RH WIND       PRES   REMARKS
CARBONDALE     MOSUNNY   82  72  71 W6        29.91S HX  87
CAIRO*         PTSUNNY   80  75  86 CALM      29.92S HX  85
EFFINGHAM*     HVY RAIN  76  76  98 CALM      29.93S
MARION         PTSUNNY   81  75  83 S7        29.92F HX  86
MT. VERNON     CLOUDY    82  72  69 MISG      29.90S HX  87
CENTRALIA*     CLOUDY    83  77  82 CALM      29.90S HX  91
SALEM*         PTSUNNY   82  73  75 CALM      29.91S HX  88
METROPOLIS*    CLOUDY    79  75  88 CALM      29.94R HX  83
$$

ILZ067-068-072-073-078-083-087-091-281700-
SOUTHEAST ILLINOIS

CITY           SKY/WX    TMP DP  RH WIND       PRES   REMARKS
LAWRENCEVILLE  CLOUDY    80  73  79 CALM      29.91S HX  84
FLORA*         CLOUDY    80  75  82 CALM      29.92S HX  86
FAIRFIELD*     CLOUDY    78  74  88 CALM      29.91R HX  80
HARRISBURG*    CLOUDY    78  75  90 S7        29.92F HX  81
ROBINSON*      PTSUNNY   78  73  84 CALM      29.91F HX  81
CARMI*         CLOUDY    78  74  88 SW5       29.92S
$$

ABBREVIATIONS USED IN REMARKS
   TC - TEMPERATURE IN CELSIUS
  WCI - WIND CHILL INDEX
   HX - HEAT INDEX
  VSB - VISIBILITY
$$





USA.gov is the U.S. government's official web portal to all federal, state and local government web resources and services.